Regional Weather Roundup
Issued by NWS

Home | Current Version | Previous Version | Graphics & Text | Print | Product List | Glossary On
Versions: 1 2 3 4 5 6 7 8 9 10 11 12 13 14 15 16 17 18 19 20 21 22 23 24 25 26 27 28 29 30 31 32 33 34 35 36 37 38 39 40 41 42 43 44 45 46 47 48 49
000
ASUS45 KCYS 281810
RWRWY

WYOMING REGIONAL WEATHER ROUNDUP
NATIONAL WEATHER SERVICE CHEYENNE WY
1200 PM MDT MON JUL 28 2014

NOTE:  "FAIR" INDICATES FEW OR NO CLOUDS BELOW 12,000 FEET
WITH NO SIGNIFICANT WEATHER AND/OR OBSTRUCTIONS TO VISIBILITY.

WYZ001-281900-
YELLOWSTONE NATIONAL PARK

CITY           SKY/WX    TMP DP  RH WIND       PRES   REMARKS
LK YELLOWSTONE   N/A     69  35  28 E5        30.52S
6HR MIN TEMP:  38; 6HR MAX TEMP:  72;

W YELLOWSTONE  NOT AVBL

$$
WYZ002>013-054>058-071-098>099-281900-
NORTHERN WYOMING

CITY           SKY/WX    TMP DP  RH WIND       PRES   REMARKS
JACKSON        SUNNY     75  43  31 S3        30.39F
CODY           NOT AVBL
GREYBULL       SUNNY     85  38  18 VRB3      30.23F
6HR MIN TEMP:  56; 6HR MAX TEMP:  87;

WORLAND        SUNNY     84  44  24 VRB5      30.25F
6HR MIN TEMP:  56; 6HR MAX TEMP:  84;

SHERIDAN       SUNNY     84  51  31 E10       30.28F
6HR MIN TEMP:  48; 6HR MAX TEMP:  84;

BUFFALO        SUNNY     78  49  35 SE12      30.35F
6HR MIN TEMP:  54; 6HR MAX TEMP:  79;

GILLETTE         N/A    N/A N/A N/A MISG      30.32S
HULETT         FAIR      77  52  41 MISG      30.33
NEWCASTLE      FAIR      79  45  29 SE8       30.33

$$
WYZ014>020-022>026-101>103-281900-
CENTRAL WYOMING

CITY           SKY/WX    TMP DP  RH WIND       PRES   REMARKS
BIG PINEY      MOSUNNY   81  35  19 SW8       30.43F
6HR MIN TEMP:  47; 6HR MAX TEMP:  82;

PINEDALE       PTCLDY    81  36  19 SE7       30.43F
DUBOIS         FAIR      77  30  18 E6        30.44F
LANDER         SUNNY     85  40  20 VRB5      30.32F
6HR MIN TEMP:  58; 6HR MAX TEMP:  85;

RIVERTON       SUNNY     81  39  22 VRB5      30.33F
6HR MIN TEMP:  55; 6HR MAX TEMP:  81;

CASPER         SUNNY     81  48  31 VRB6      30.34F
6HR MIN TEMP:  49; 6HR MAX TEMP:  81;

DOUGLAS        SUNNY     82  51  34 E9        30.35F
6HR MIN TEMP:  55; 6HR MAX TEMP:  83;


$$
WYZ021-027>030-104>119-281900-
SOUTHERN WYOMING

CITY           SKY/WX    TMP DP  RH WIND       PRES   REMARKS
EVANSTON       MOSUNNY   79  42  26 NW5       30.41F
6HR MIN TEMP:  60; 6HR MAX TEMP:  80;

FORT BRIDGER   FAIR      78  36  22 N5        30.44F
ROCK SPRINGS   SUNNY     84  34  16 S6        30.38F
6HR MIN TEMP:  59; 6HR MAX TEMP:  85;

DIXON          FAIR      85  40  20 S3        30.40F
RAWLINS        SUNNY     82  41  23 E12G18    30.41F
6HR MIN TEMP:  53; 6HR MAX TEMP:  82;

SARATOGA       FAIR      81  37  21 CALM      30.43F
LARAMIE        SUNNY     76  53  44 E8        30.45F
6HR MIN TEMP:  48; 6HR MAX TEMP:  77;

CHEYENNE       SUNNY     79  52  38 SE9G20    30.40F
6HR MIN TEMP:  56; 6HR MAX TEMP:  79;

TORRINGTON     SUNNY     79  57  46 SE8       30.30F
6HR MIN TEMP:  57; 6HR MAX TEMP:  79;

PINE BLUFFS    FAIR      81  50  34 E12       30.36F

$$


USA.gov is the U.S. government's official web portal to all federal, state and local government web resources and services.